Theta_e
341 342 340 335 332 329 327 327 326 326 326 327 326 326 329 331 331 331 332 332 330 330 341 336 341 343 344 342 341 342 342 341 337 338 340 339 331 338 336 339 336 339 338
341 341 341 335 334 330 330 335 335 331 327 327 328 330 333 328 326 327 328 329 341 336 332 339 337 332 340 341 339 340 341 342 341 332 325 329 335 329 333 339 333 335 339
340 341 338 335 336 334 329 330 336 334 330 332 333 333 330 330 326 325 327 337 333 338 334 340 339 341 341 339 339 341 342 337 334 335 339 344 341 337 322 329 335 338 334
338 337 336 335 337 337 333 332 337 336 333 336 335 334 337 332 340 337 330 335 336 341 337 338 340 340 339 339 337 334 333 330 335 331 344 341 343 335 331 320 325 319 320
338 337 335 337 339 338 339 340 338 336 337 336 337 340 341 337 331 339 336 333 337 338 336 336 337 337 341 342 337 333 330 330 327 329 338 341 343 330 337 324 338 339 329
337 336 335 338 338 337 338 338 336 337 338 336 336 339 340 340 342 338 338 338 336 337 338 336 338 341 343 341 339 337 335 335 335 341 339 330 339 322 323 329 324 327 328
337 337 335 337 339 337 335 341 338 339 340 340 338 342 341 341 337 337 338 339 338 338 336 337 340 341 339 342 341 338 335 337 333 331 336 341 338 322 321 336 329 336 336
337 336 336 340 339 333 335 341 336 338 341 340 340 340 339 339 340 339 332 330 337 337 335 338 341 340 338 337 338 335 333 336 334 326 340 337 322 326 327 328 333 336 333
335 337 340 337 338 341 341 342 342 341 339 339 339 339 336 339 337 338 338 339 336 332 335 339 342 341 339 339 337 334 333 335 334 332 341 333 322 338 336 334 330 327 333
338 340 335 339 344 343 342 340 340 340 341 340 339 338 337 338 339 337 337 334 329 331 335 339 342 340 341 340 339 335 333 333 334 334 340 330 328 329 332 335 325 327 334
340 339 338 341 342 342 343 341 338 340 337 336 339 336 336 340 339 342 336 330 331 335 339 341 341 342 341 340 339 337 331 333 334 335 338 336 338 332 338 332 328 329 333
340 341 343 344 339 340 344 339 339 342 340 336 334 332 336 337 335 341 337 327 333 339 341 341 340 341 342 343 341 337 333 330 337 338 339 338 337 333 330 328 331 329 326
333 338 340 339 337 338 337 334 337 337 334 333 331 333 335 334 336 335 334 331 339 340 341 341 342 341 341 341 341 339 332 331 337 341 338 339 334 331 330 328 329 329 327
334 335 335 336 337 334 330 337 336 336 333 332 332 334 335 335 334 332 331 330 339 340 341 342 340 340 342 342 339 334 329 330 336 337 337 333 337 330 329 327 326 327 326
334 335 335 335 336 329 334 339 338 339 336 332 333 334 334 337 333 333 335 335 336 340 341 340 339 341 342 341 338 338 331 327 326 334 339 328 327 326 327 326 325 325 324
333 332 334 335 334 328 335 342 343 343 337 337 337 336 338 340 339 338 339 342 340 340 341 340 341 342 342 341 339 340 338 337 335 331 329 326 325 325 326 326 325 324 325
331 334 334 335 331 333 337 341 343 343 339 339 340 340 341 341 340 340 341 342 341 341 341 341 342 342 340 340 341 341 340 340 340 338 338 336 334 334 332 331 332 329 326
330 334 334 334 331 338 340 339 341 342 342 341 341 342 342 342 342 341 341 342 341 342 341 341 341 341 340 341 341 342 341 340 340 340 340 339 339 338 338 339 336 332 329
329 332 333 333 330 335 341 342 343 343 344 344 343 342 341 341 342 342 342 341 339 341 341 341 342 341 341 342 341 341 341 341 340 340 339 340 340 338 339 339 339 338 334
329 331 333 333 331 334 341 344 346 345 344 345 345 343 343 344 342 342 342 342 339 340 341 342 342 341 342 340 340 340 340 340 340 340 340 340 341 341 340 339 337 334 334
334 333 333 333 335 340 343 344 344 344 344 345 346 345 345 342 342 342 343 341 340 341 339 341 341 341 341 340 340 340 338 338 338 339 340 340 340 340 341 342 342 337 331
334 335 335 335 337 341 343 343 343 343 344 344 346 344 344 345 342 343 343 343 342 340 340 342 340 341 341 341 341 338 339 340 339 337 338 339 339 340 341 341 342 341 334
337 337 338 338 339 341 342 343 343 343 344 345 345 344 344 343 343 344 343 341 344 342 338 342 339 339 340 341 339 341 343 341 341 338 338 338 339 340 341 341 341 340 337
344 339 340 340 339 341 341 342 342 344 344 344 342 342 346 345 342 343 344 341 343 342 341 341 341 340 340 340 340 340 339 341 342 342 343 340 339 340 340 340 339 338 337
343 343 341 341 341 341 341 342 343 344 344 345 344 344 346 346 344 344 345 344 343 345 343 342 341 340 339 339 340 339 339 339 339 343 344 345 340 340 339 340 339 338 338
346 343 342 342 341 341 341 341 342 344 344 343 345 345 345 346 344 342 345 341 342 344 343 342 342 341 341 340 338 338 339 341 346 345 345 344 341 341 341 342 341 341 341
Wind_Speed
24 23 21 20 18 18 17 16 15 13 12 11 9 8 7 6 5 5 6 6 7 9 10 10 12 12 13 15 16 15 16 17 16 18 18 18 19 19 19 19 21 18 20
27 25 22 20 17 16 15 14 13 11 9 8 7 7 6 5 5 5 5 6 8 9 10 10 11 13 14 14 15 15 15 17 16 17 18 18 19 17 17 19 18 19 18
26 25 22 18 16 14 13 12 11 9 8 8 8 8 7 7 8 7 6 7 8 8 10 11 11 13 12 14 13 14 15 14 14 16 19 16 17 16 17 18 18 16 16
27 24 21 17 14 13 13 11 9 8 7 8 8 7 7 8 9 9 8 9 9 9 9 11 11 11 12 13 15 13 12 13 15 16 15 15 15 14 17 15 15 15 15
26 23 20 16 12 11 11 10 9 7 7 8 8 7 8 8 9 9 10 9 10 10 10 11 11 12 13 12 14 15 14 14 15 16 15 15 14 14 15 15 15 15 15
26 22 19 15 12 11 11 11 9 7 8 7 8 8 9 8 9 9 10 10 10 11 10 12 13 13 11 11 12 13 14 15 15 14 14 15 13 13 13 13 13 14 15
25 20 18 13 12 11 10 9 8 8 9 8 8 9 9 8 9 10 10 10 9 11 12 13 15 15 13 9 9 10 12 13 14 13 14 14 13 11 14 12 14 14 13
23 19 15 13 12 9 9 9 9 10 9 9 8 9 9 9 9 10 10 10 11 11 13 14 14 16 16 11 9 10 12 12 12 13 13 12 11 12 13 13 13 12 13
21 17 15 13 11 10 9 9 9 10 9 8 8 8 9 9 9 9 11 10 12 15 15 15 13 17 16 12 11 11 11 12 12 12 11 11 11 11 11 11 10 10 10
19 17 15 13 13 12 11 11 10 10 9 8 9 10 9 9 9 10 11 7 12 15 15 14 16 14 12 12 13 14 12 12 11 10 9 11 10 10 10 11 10 10 10
19 16 15 14 13 13 12 12 10 10 9 9 10 10 11 10 10 11 10 9 14 16 15 14 14 13 13 11 13 13 12 10 9 9 9 9 9 9 9 8 9 9 9
20 17 16 14 14 14 14 13 12 10 10 11 12 12 11 11 12 11 11 12 15 15 14 13 13 12 10 9 10 13 11 9 8 8 7 10 7 7 6 7 8 8 7
21 19 18 16 15 14 14 15 14 13 12 13 14 14 12 12 11 11 12 14 14 14 13 12 11 9 9 9 11 11 10 9 7 7 7 7 5 7 7 7 6 7 7
22 20 19 18 15 15 17 17 15 14 14 14 15 15 14 12 11 12 13 14 13 11 11 10 8 8 6 6 10 11 10 8 8 7 6 7 6 6 6 6 6 6 6
21 21 20 19 18 17 18 16 15 13 13 14 14 15 16 14 13 14 14 13 11 10 8 7 7 7 7 7 9 11 11 9 8 7 5 7 8 7 6 5 5 5 5
22 22 21 20 19 18 19 16 13 11 13 16 15 15 14 13 12 10 10 7 7 7 6 6 6 6 6 8 8 9 10 10 10 9 8 7 7 6 6 6 5 5 5
21 22 21 21 21 19 18 15 13 11 12 11 11 12 10 8 6 7 5 7 6 6 4 4 4 6 7 7 6 8 8 8 9 9 10 9 8 8 7 7 6 5 5
23 22 22 22 21 21 19 15 14 11 9 9 8 7 6 7 8 8 8 5 5 6 4 2 1 3 7 9 7 6 8 7 7 7 7 7 7 6 7 7 7 8 7
22 22 22 23 23 22 19 16 13 11 8 7 7 8 8 7 6 7 7 7 6 7 4 1 5 5 4 6 7 7 8 9 8 7 6 7 7 6 5 5 6 6 7
23 24 23 23 24 23 19 17 13 11 9 7 6 6 8 5 5 6 5 7 10 8 4 3 3 4 3 4 6 5 6 7 6 6 6 6 6 5 6 6 6 6 6
26 26 25 25 25 23 21 18 15 11 11 10 7 6 6 5 5 6 6 6 9 9 6 3 5 3 3 3 4 4 5 6 6 6 6 6 5 5 5 5 6 6 5
30 28 26 26 27 25 22 17 15 11 10 10 9 7 7 7 5 4 8 7 7 7 8 4 7 4 2 1 3 5 4 4 6 4 4 3 2 2 2 4 4 4 4
30 31 28 26 26 25 23 20 17 14 12 12 11 8 6 7 7 7 8 6 6 6 8 5 6 2 2 2 3 2 4 6 7 7 5 4 2 2 3 3 3 3 4
35 33 30 28 27 24 23 21 21 18 16 15 10 9 7 6 6 5 7 8 5 7 6 8 5 4 3 5 1 3 5 6 5 6 7 6 4 3 3 3 3 3 3
32 34 34 32 29 27 25 23 22 21 18 13 12 10 8 8 8 6 7 9 8 5 8 9 8 8 5 5 3 4 5 7 9 7 7 7 7 7 5 5 4 2 3
30 31 36 37 33 31 27 25 23 21 20 17 15 13 11 9 8 9 7 7 10 7 6 10 9 8 8 7 6 4 3 3 5 6 6 9 9 7 7 9 4 2 5
Wind_Direction
155 150 141 137 133 130 128 130 130 129 130 135 133 120 110 107 112 111 105 102 112 111 95 88 90 90 90 92 89 89 88 85 83 89 87 83 87 90 92 89 82 87 84
150 154 148 139 134 135 134 129 119 114 115 118 116 108 94 96 104 108 114 109 107 112 110 98 94 93 94 93 90 90 87 87 79 85 92 90 91 90 95 90 95 92 85
152 151 148 143 140 138 141 134 122 116 117 124 116 102 93 88 90 96 113 99 108 109 115 108 103 100 98 93 92 91 92 88 91 91 91 89 88 84 90 91 90 85 89
155 150 148 146 146 146 142 138 133 127 124 124 114 102 88 88 99 92 100 117 103 110 119 119 112 107 105 99 88 88 88 91 90 94 91 91 89 88 88 88 90 89 88
156 156 150 148 145 146 148 144 145 137 137 130 123 109 95 89 108 99 100 108 126 123 117 117 109 103 98 91 81 80 91 93 93 96 92 97 93 91 89 92 86 84 82
155 154 152 146 143 139 142 147 147 139 133 130 126 110 102 101 99 101 102 104 119 122 121 114 102 95 91 83 84 80 91 94 92 94 91 96 92 89 89 87 87 85 84
158 155 155 156 156 151 153 149 141 138 134 133 129 118 113 105 99 99 100 101 111 118 122 114 110 100 98 104 99 76 86 97 92 96 92 96 91 81 98 90 86 81 80
159 158 159 159 158 156 151 149 144 137 133 130 126 117 111 101 96 94 93 97 109 123 124 112 109 110 109 104 100 85 92 101 96 96 96 90 86 90 89 87 84 78 76
160 160 156 154 152 145 141 140 143 131 124 122 123 116 112 99 100 96 97 88 111 125 124 114 109 115 109 96 80 82 92 97 91 90 91 86 96 88 86 84 80 78 74
162 160 157 154 151 149 143 142 135 131 128 122 119 120 117 108 98 96 85 105 115 122 120 112 109 114 102 88 73 69 81 88 93 91 91 91 92 86 87 82 78 83 78
163 159 158 157 153 147 138 138 131 131 127 128 129 131 123 109 107 96 99 108 118 119 118 112 108 103 91 79 64 64 70 82 86 86 93 94 87 83 79 75 75 78 78
165 162 158 159 157 152 143 147 139 134 129 130 127 125 123 117 116 102 97 111 118 117 112 108 110 99 77 82 68 56 60 77 87 92 99 88 83 88 83 74 73 69 68
169 165 164 163 160 158 150 140 135 127 119 123 127 126 123 119 117 114 111 113 117 115 110 103 98 84 85 70 56 54 58 69 85 95 101 98 82 85 74 74 76 72 63
171 167 164 162 163 157 150 144 138 125 117 123 124 123 122 121 119 114 111 114 116 115 107 99 86 74 65 64 65 60 61 69 81 87 84 87 83 79 77 71 67 68 65
172 170 166 163 162 162 155 151 145 130 122 125 125 123 121 115 114 118 114 113 117 119 105 92 80 57 54 104 87 67 64 70 78 82 84 79 82 81 79 72 63 51 48
173 171 168 165 163 164 162 155 154 144 136 126 120 125 124 115 116 124 120 113 130 137 122 107 83 71 62 100 95 72 67 69 72 76 75 76 74 77 74 68 55 43 32
178 174 172 169 168 164 163 159 152 150 150 147 134 135 130 129 144 155 149 131 138 149 150 131 88 74 70 92 91 81 73 75 72 73 73 72 68 63 56 54 49 37 28
183 181 175 174 172 166 164 162 156 151 150 156 156 149 150 143 137 164 161 169 161 162 144 143 94 101 97 87 80 75 75 69 65 62 62 59 54 58 54 41 42 43 38
186 183 183 179 177 172 165 161 163 158 159 160 168 174 157 148 144 141 150 158 160 155 153 157 113 125 106 78 78 74 67 58 56 56 53 47 49 57 51 32 31 29 34
190 188 189 186 180 178 180 179 185 185 191 180 169 166 177 175 167 164 160 166 171 163 159 157 158 126 119 86 98 65 48 49 42 34 21 20 18 24 35 33 26 22 25
194 190 190 188 181 182 184 189 195 198 195 195 190 182 171 169 173 188 183 169 175 183 186 208 207 143 107 109 81 44 41 40 26 7 2 354 352 355 19 23 25 30 34
199 194 195 192 187 189 194 196 193 190 194 189 181 182 185 189 179 174 177 175 175 180 181 157 158 167 187 135 66 50 28 41 18 20 12 358 336 22 28 359 23 29 39
209 202 199 198 196 199 201 200 199 197 199 198 193 182 175 179 187 180 193 182 180 174 188 169 180 192 234 204 103 42 27 19 25 33 28 29 13 34 7 7 26 40 53
215 213 211 207 205 206 211 211 211 209 207 207 202 193 188 187 184 192 204 192 192 196 199 197 185 185 164 160 29 25 11 7 2 5 24 42 31 13 4 17 25 25 38
215 218 220 219 215 214 215 217 219 219 219 218 205 196 201 204 197 197 206 215 210 206 211 208 213 213 211 228 254 313 359 11 19 13 17 32 51 42 37 23 1 11 25
222 222 226 225 222 221 221 222 222 220 220 216 208 206 200 203 202 207 211 210 208 211 210 217 222 223 230 239 248 265 320 352 13 31 24 32 49 54 44 20 12 23 10